Easton, MD

11:43 AM EST on February 27, 2017 (GMT -0500)
Easton / Newnam

Weather History for KESN - May, 2014

Change the Weather History Date:

Friday, May 2, 2014

  Actual Average Record
Temperature  
Mean Temperature 64 °F -  
Max Temperature 71 °F 74 °F 87 °F (1954)
Min Temperature 57 °F 50 °F 33 °F (1963)
Degree Days  
Heating Degree Days 1    
Growing Degree Days 14 (Base 50)    
Moisture  
Dew Point 46 °F    
Average Humidity 56    
Maximum Humidity 76    
Minimum Humidity 33    
Precipitation  
Precipitation 0.00 in - - ()
Sea Level Pressure  
Sea Level Pressure 29.87 in    
Wind  
Wind Speed 6 mph (NW)    
Max Wind Speed 14 mph    
Max Gust Speed 23 mph    
Visibility 10 miles    
Events Rain    
Averages and records for this station are not official NWS values.
T = Trace of Precipitation, MM = Missing Value Source: NWS Daily Summary

Daily Weather History Graph

Daily Weather History Graph

Search for Another Location

Airport or City:

Trip Planner

Search our weather history database for the weather conditions in past years. The results will help you decide how hot, cold, wet, or windy it might be!

Date:

Astronomy

May. 02, 2014 Rise Set
Actual Time 6:05 AM EDT 7:57 PM EDT
Civil Twilight 5:36 AM EDT 8:26 PM EDT
Nautical Twilight 5:01 AM EDT 9:01 PM EDT
Astronomical Twilight 4:24 AM EDT 9:39 PM EDT
Moon 8:41 AM EDT (5/2) 11:17 PM EDT (5/2)
Length of Visible Light 14h 49m
Length of Day
13h 52m
Waxing Crescent, 12% of the Moon is Illuminated
May 2
Waxing Crescent
May 6
First Quarter
May 14
Full
May 21
Last Quarter
May 28
New

Hourly Weather History & Observations

Time (EDT) Temp. Dew Point Humidity Pressure Visibility Wind Dir Wind Speed Gust Speed Precip Events Conditions
12:07 AM 65.7 °F 51.3 °F 60% 29.80 in 10.0 mi North 13.8 mph 23.0 mph N/A   Clear
12:27 AM 64.2 °F 50.2 °F 60% 29.82 in 10.0 mi North 5.8 mph 16.1 mph N/A   Clear
12:47 AM 64.4 °F 50.4 °F 60% 29.83 in 10.0 mi North 5.8 mph - N/A   Mostly Cloudy
1:07 AM 64.2 °F 49.3 °F 58% 29.83 in 10.0 mi North 5.8 mph - N/A   Overcast
1:27 AM 63.0 °F 50.0 °F 63% 29.83 in 10.0 mi North 5.8 mph - N/A   Mostly Cloudy
1:47 AM 63.1 °F 49.3 °F 61% 29.84 in 10.0 mi North 3.5 mph - N/A   Overcast
2:07 AM 62.2 °F 50.5 °F 65% 29.84 in 10.0 mi NNW 3.5 mph - N/A Rain Light Rain
2:27 AM 61.5 °F 52.2 °F 71% 29.84 in 10.0 mi Calm Calm - N/A Rain Rain
2:47 AM 61.7 °F 49.8 °F 65% 29.84 in 10.0 mi North 4.6 mph - N/A   Overcast
3:07 AM 60.8 °F 49.8 °F 67% 29.84 in 10.0 mi North 5.8 mph - N/A   Overcast
3:28 AM 61.7 °F 46.2 °F 57% 29.84 in 10.0 mi North 9.2 mph - N/A   Mostly Cloudy
3:48 AM 61.7 °F 45.3 °F 55% 29.85 in 10.0 mi North 6.9 mph - N/A   Mostly Cloudy
4:08 AM 61.3 °F 45.1 °F 55% 29.85 in 10.0 mi North 4.6 mph - N/A   Mostly Cloudy
4:28 AM 59.7 °F 45.5 °F 59% 29.85 in 10.0 mi NNW 3.5 mph - N/A   Scattered Clouds
4:48 AM 59.9 °F 45.7 °F 59% 29.85 in 10.0 mi NNW 3.5 mph - N/A   Mostly Cloudy
5:08 AM 59.2 °F 46.8 °F 63% 29.86 in 10.0 mi NNW 3.5 mph - N/A   Overcast
5:28 AM 59.2 °F 45.9 °F 61% 29.86 in 10.0 mi NNW 3.5 mph - N/A   Mostly Cloudy
5:48 AM 59.0 °F 45.0 °F 60% 29.86 in 10.0 mi Calm Calm - N/A   Mostly Cloudy
5:50 AM 59.0 °F 44.6 °F 59% 29.87 in 10.0 mi Calm Calm - N/A   Mostly Cloudy
6:08 AM 58.6 °F 45.0 °F 60% 29.86 in 10.0 mi Calm Calm - N/A   Mostly Cloudy
6:24 AM 58.6 °F 45.5 °F 62% 29.87 in 10.0 mi Calm Calm - N/A   Overcast
6:50 AM 57.2 °F 46.4 °F 67% 29.88 in 10.0 mi Calm Calm - N/A   Mostly Cloudy
7:56 AM 62.6 °F 44.6 °F 52% 29.89 in 10.0 mi WNW 4.6 mph - N/A   Scattered Clouds
8:55 AM 64.4 °F 41.0 °F 42% 29.90 in 10.0 mi NW 9.2 mph - N/A   Partly Cloudy
9:45 AM 64.4 °F 41.0 °F 42% 29.90 in 10.0 mi NW 10.4 mph 16.1 mph N/A   Partly Cloudy
10:45 AM 66.2 °F 41.0 °F 40% 29.90 in 10.0 mi WNW 10.4 mph 18.4 mph N/A   Scattered Clouds
11:45 AM 66.2 °F 39.2 °F 37% 29.90 in 10.0 mi West 8.1 mph - N/A   Mostly Cloudy
12:45 PM 66.2 °F 41.0 °F 40% 29.89 in 10.0 mi West 5.8 mph - N/A   Mostly Cloudy
1:45 PM 68.0 °F 41.0 °F 37% 29.88 in 10.0 mi West 8.1 mph - N/A   Mostly Cloudy
2:50 PM 71.6 °F 41.0 °F 33% 29.86 in 10.0 mi SSW 10.4 mph 17.3 mph N/A   Mostly Cloudy
3:50 PM 71.6 °F 41.0 °F 33% 29.85 in 10.0 mi WSW 11.5 mph - N/A   Scattered Clouds
4:45 PM 71.6 °F 42.8 °F 35% 29.85 in 10.0 mi SW 12.7 mph 18.4 mph N/A   Scattered Clouds
5:53 PM 68.0 °F 41.0 °F 37% 29.87 in 10.0 mi SW 9.2 mph - N/A   Mostly Cloudy
6:50 PM 66.2 °F 44.6 °F 46% 29.87 in 10.0 mi SSW 9.2 mph - N/A   Mostly Cloudy
7:50 PM 64.4 °F 44.6 °F 49% 29.88 in 10.0 mi SSW 5.8 mph - N/A   Scattered Clouds
8:50 PM 62.6 °F 46.4 °F 55% 29.90 in 10.0 mi Calm Calm - N/A   Scattered Clouds
10:29 PM 60.8 °F 50.5 °F 69% 29.92 in 10.0 mi Calm Calm - N/A   Mostly Cloudy
10:50 PM 60.3 °F 50.2 °F 69% 29.91 in 10.0 mi NNE 5.8 mph - N/A   Scattered Clouds
11:10 PM 59.2 °F 50.9 °F 74% 29.92 in 10.0 mi Calm Calm - N/A   Scattered Clouds
11:30 PM 59.2 °F 51.1 °F 74% 29.92 in 10.0 mi Calm Calm - N/A   Clear
11:50 PM 58.5 °F 51.1 °F 76% 29.93 in 10.0 mi Calm Calm - N/A   Clear